Location: Killam
(52.7910°N, 111.8608°W)
Time: 23:07:47
(UTC+00:00)

Vanguard 3 - Pass Details

Date: 22 February 2026
Orbit: 507 x 3205 km, 33.4° (Epoch: 11 March)

Event Time Altitude Azimuth Distance (km) Brightness Sun altitude
Rises 00:20:18 0° 242° (WSW) 5,481 14.2 3.6°
Reaches altitude 10° 00:25:53 10° 227° (SW) 3,888 12.1 2.8°
Maximum altitude 00:31:34 17° 190° (S) 2,706 10.3 2.0°
Drops below altitude 10° 00:35:49 10° 151° (SSE) 2,749 9.8 1.4°
Sets 00:38:50 0° 131° (SE) 3,355 10.0 1.0°
